Weather History for West Palm Beach, FL

Change the Weather History Date:

Sunday, October 6, 2013

  Actual Average Record
Temperature  
Mean Temperature 81 °F 80 °F  
Max Temperature 88 °F 86 °F 95 °F (1906)
Min Temperature 74 °F 74 °F 63 °F (1992)
Degree Days  
Heating Degree Days 0 0  
Month to date heating degree days 0 0  
Since 1 July heating degree days 0 0  
Cooling Degree Days 16 15  
Month to date cooling degree days 109 92  
Year to date cooling degree days 3482 3300  
Growing Degree Days 30 (Base 50)    
Moisture  
Dew Point 71 °F    
Average Humidity 72    
Maximum Humidity 87    
Minimum Humidity 57    
Precipitation  
Precipitation 0.43 in 0.19 in 4.34 in (1974)
Month to date precipitation 0.43 1.21  
Year to date precipitation 57.15 50.28  
Snow  
Snow 0.00 in - - ()
Month to date snowfall 0.0  
Since 1 July snowfall 0.0  
Since 1 September snowfall 0.0  
Snow Depth 0.00 in    
Sea Level Pressure  
Sea Level Pressure 29.93 in    
Wind  
Wind Speed 6 mph (ESE)    
Max Wind Speed 17 mph    
Max Gust Speed 30 mph    
Visibility 10 miles    
Events Rain    
T = Trace of Precipitation, MM = Missing Value Source: NWS Daily Summary

Daily Weather History Graph

Daily Weather History Graph

Search for Another Location

Airport:

Trip Planner

Search our weather history database for the weather conditions in past years. The results will help you decide how hot, cold, wet, or windy it might be!

Date:

Astronomy

Oct. 06, 2013 Rise Set
Actual Time 7:15 AM EDT 7:01 PM EDT
Civil Twilight 6:52 AM EDT 7:24 PM EDT
Nautical Twilight 6:25 AM EDT 7:51 PM EDT
Astronomical Twilight 5:58 AM EDT 8:17 PM EDT
Moon 8:45 AM EDT (10/6) 8:13 PM EDT (10/6)
Length of Visible Light 12h 32m
Length of Day
11h 45m
Waxing Crescent, 3% of the Moon is Illuminated
Oct 6
Waxing Crescent
Oct 11
First Quarter
Oct 18
Full
Oct 26
Last Quarter
Nov 3
New

Hourly Weather History & Observations

Time (EDT) Temp. Heat Index Dew Point Humidity Pressure Visibility Wind Dir Wind Speed Gust Speed Precip Events Conditions
12:53 AM 81.0 °F 84.9 °F 71.1 °F 72% 29.97 in 10.0 mi East 6.9 mph - 0.00 in   Partly Cloudy
1:53 AM 80.1 °F 83.6 °F 71.1 °F 74% 29.96 in 10.0 mi ESE 6.9 mph - N/A   Partly Cloudy
2:53 AM 80.1 °F 83.2 °F 70.0 °F 71% 29.94 in 10.0 mi ESE 5.8 mph - N/A   Partly Cloudy
3:53 AM 79.0 °F - 71.1 °F 77% 29.91 in 10.0 mi SE 3.5 mph - N/A   Partly Cloudy
4:53 AM 80.1 °F 83.6 °F 71.1 °F 74% 29.90 in 10.0 mi ESE 6.9 mph - N/A   Partly Cloudy
5:53 AM 80.1 °F 83.8 °F 72.0 °F 76% 29.91 in 10.0 mi SE 3.5 mph - N/A   Partly Cloudy
6:53 AM 75.9 °F - 70.0 °F 82% 29.92 in 10.0 mi Calm Calm - N/A   Scattered Clouds
7:53 AM 75.9 °F - 71.1 °F 85% 29.94 in 10.0 mi Calm Calm - N/A   Scattered Clouds
8:53 AM 81.0 °F 85.8 °F 73.0 °F 77% 29.95 in 10.0 mi Calm Calm - N/A   Mostly Cloudy
9:53 AM 84.0 °F 89.6 °F 72.0 °F 67% 29.96 in 10.0 mi ESE 4.6 mph - N/A   Mostly Cloudy
10:39 AM 86.0 °F 91.8 °F 71.6 °F 62% 29.96 in 10.0 mi East 8.1 mph - N/A   Mostly Cloudy
10:53 AM 84.9 °F 90.7 °F 72.0 °F 65% 29.96 in 10.0 mi East 9.2 mph - N/A   Mostly Cloudy
11:28 AM 78.8 °F - 71.6 °F 78% 29.97 in 2.0 mi South 13.8 mph 19.6 mph 0.15 in Rain Heavy Rain
11:42 AM 80.6 °F 84.6 °F 71.6 °F 74% 29.96 in 5.0 mi Calm Calm - 0.43 in Rain Light Rain
11:53 AM 84.0 °F 90.2 °F 73.0 °F 69% 29.96 in 10.0 mi ENE 10.4 mph 29.9 mph 0.43 in   Mostly Cloudy
12:53 PM 86.0 °F 93.8 °F 73.9 °F 67% 29.94 in 10.0 mi East 10.4 mph - N/A   Mostly Cloudy
1:53 PM 87.1 °F 93.6 °F 72.0 °F 61% 29.91 in 10.0 mi East 9.2 mph 17.3 mph N/A   Mostly Cloudy
2:53 PM 88.0 °F 93.8 °F 71.1 °F 57% 29.90 in 10.0 mi East 9.2 mph - N/A   Mostly Cloudy
3:53 PM 86.0 °F 90.7 °F 70.0 °F 59% 29.88 in 10.0 mi ESE 9.2 mph - N/A   Mostly Cloudy
4:53 PM 86.0 °F 92.2 °F 72.0 °F 63% 29.88 in 10.0 mi ESE 9.2 mph - N/A   Mostly Cloudy
5:53 PM 84.0 °F 89.0 °F 71.1 °F 65% 29.88 in 10.0 mi East 9.2 mph - N/A   Mostly Cloudy
6:53 PM 84.0 °F 88.4 °F 70.0 °F 63% 29.89 in 10.0 mi ESE 8.1 mph - N/A   Mostly Cloudy
7:53 PM 82.9 °F 87.0 °F 70.0 °F 65% 29.90 in 10.0 mi SE 6.9 mph - N/A   Mostly Cloudy
8:53 PM 82.0 °F 86.7 °F 72.0 °F 71% 29.91 in 10.0 mi SE 6.9 mph - N/A   Scattered Clouds
9:53 PM 81.0 °F 85.2 °F 72.0 °F 74% 29.92 in 10.0 mi SSE 4.6 mph - N/A   Partly Cloudy
10:53 PM 80.1 °F 83.8 °F 72.0 °F 76% 29.92 in 10.0 mi SSE 4.6 mph - N/A   Partly Cloudy
11:53 PM 80.1 °F 83.6 °F 71.1 °F 74% 29.91 in 10.0 mi South 3.5 mph - N/A   Scattered Clouds